Погода в Ребрихе

Погода в Ребрихе : погода сейчас, прогноз погоды и архив. Всё, что Вы хотите узнать о погоде в Ребрихе!

Хотите узнать прогноз погоды в Ребрихе? Тогда Вам сюда: Погода в Ребрихе

Поиск расширенной информации на нашем сайте:

Другие новости

Новости СМИ2

Главная страница сайта

Новости сайта

03.07.2017

Напоминаем, что на нашем специализированном сайте Метеоцентр.Азия вы можете получить высокодетализированные автоматические прогнозы погоды по пунктам России, СНГ и мира в авиационном формате (включающие направление и скорость ветра, видимость, явления погоды, количество и форму облачности, нижнюю и верхнюю границу облачности).


Погода в Ребрихе - сегодня

Время (UTC), дата Ветер
(°,м/с) 
Видим.   Явления Облачность Т
(°С)
Тd
(°С)
f(%) Тe
(°С)
Pmin
(гПа)
dP
(гПа)
Po
(мм)
O2
(г/м3)
Тmin Tmax R s Состояние
почвы
18 19.11.17 190 (Ю) н/о    н/о 
-3.8 -5.1 91 -7  1032.8  1.9  753  308           
21 19.11.17 170 (Ю) н/о    н/о 
-3.5 -4 96 -6  1032.3  -0.4  753  308           
00 20.11.17 190 (Ю) 6{10}  н/о    н/о 
-3.2 -4.2 93 -7  1032.6  0.3  753  308  -4.4         
03 20.11.17 200 (Ю) н/о    н/о 
-2.9 -3.8 93 -6  1033.4  0.8  754  308           
06 20.11.17 210 (ЮЗ) н/о    н/о 
-1.9 -3.2 91 -5  1034.8  1.5  755  307           
09 20.11.17 190 (Ю) н/о    н/о 
-2 -3.4 90 -6  1035.5  0.6  756  307           
12 20.11.17 190 (Ю) 3{10}  н/о    н/о 
-2.4 -3.5 92 -4  1036.9  1.3  757  308    -1.7     
15 20.11.17 190 (Ю) н/о    н/о 
-2 -3 93 -5  1036.8  757  307           
18 20.11.17 190 (Ю) 7-10{10}  н/о    н/о 
-1.7 -2.7 93 -6  1036.3  -0.5  756  307           
21 20.11.17 190 (Ю) 5{10}  н/о    н/о 
-1.9 -2.6 95 -5  1035.9  -0.4  756  307           
00 21.11.17 200 (Ю) н/о    н/о 
-1.8 -2.7 94 -6  1036  0.1  756  307  -2.4    0.4  10  равномерный
сухой снег
100% 
03 21.11.17 200 (Ю) 7{10}  н/о    н/о 
-2.1 -3.6 89 -6  1036.5  0.4  756  308  -2.4         
06 21.11.17 200 (Ю) 7{11}  н/о    н/о 
-2.2 -4.4 85 -7  1037  0.5  757  308           
09 21.11.17 190 (Ю) 7-10{11}  н/о    н/о 
-2.9 -5.1 85 -7  1037.4  0.3  757  309           
12 21.11.17 190 (Ю) 6{10}  н/о    н/о 
-4.5 -7 83 -9  1038  0.4  757  311    -1.8  0.2     
15 21.11.17 190 (Ю) 5{10}  н/о    н/о 
-3.9 -5.7 87 -8  1037.6  -0.3  757  310           
18 21.11.17 190 (Ю) 7-10{11}  н/о    н/о 
-3.8 -6.1 84 -8  1037.3  -0.2  757  310           
21 21.11.17 190 (Ю) 7{11}  н/о    н/о 
-4.3 -7.1 81 -9  1037.2  -0.2  757  311           
00 22.11.17 190 (Ю) 7{11}  н/о    н/о 
-5 -7.5 83 -10  1037.1  -0.1  757  311  -5.1      13  равномерный
сухой снег
100% 
03 22.11.17 190 (Ю) 6{11}  н/о    н/о 
-6.4 -9 82 -11  1037.8  0.5  757  313  -6.4         
06 22.11.17 190 (Ю) 5{10}  н/о    н/о 
-4 -7.6 76 -8  1037.6  0.1  757  310           
09 22.11.17 190 (Ю) н/о    н/о 
-3.1 -7.1 74 -5  1037.3  -0.2  757  309           
12 22.11.17 200 (Ю) н/о    н/о 
-3.1 -7.1 74 -4  1037.3  -0.4  757  309    -2.5       
15 22.11.17 150 (ЮВ) н/о    н/о 
-3.5 -6.9 77 -5  1035.9  -1.1  756  309           
18 22.11.17 160 (Ю) н/о    н/о 
-8.5 -9.9 90 -8  1035.8  -0.6  755  315           
Время (UTC), дата Ветер
(°,м/с) 
Видим.   Явления Облачность Т
(°С)
Тd
(°С)
f(%) Тe
(°С)
Pmin
(гПа)
dP
(гПа)
Po
(мм)
O2
(г/м3)
Тmin Tmax R s Состояние
почвы

Для получения пояснительной информации подведите курсор к названию столбца.

ПОГОДА в Ребрихе - архив

Всё, что Вы хотите узнать о погоде в Ребрихе - удобно и подробно!

Выберите нужную дату (начиная с 1 января 2015* года) и нажмите кнопку "Найти".
Будут отображены архивные сводки погоды по пункту Ребриха, начиная с указанной даты.


Отображать данные в формате CSV (для использования в таблицах Excel)


Внимание! Наш архив погоды предназначен исключительно для личного некоммерческого использования в познавательных целях. Если Вам необходимы официальные справки о состоянии погоды (для производственных, юридических, коммерческих и т.п. целей), обращайтесь в органы Росгидромета.

*Примечание: данная дата относится к архиву по метеостанциям СССР (Россия, СНГ, Балтия).
Архив по метеостанциям Зарубежной Европы и Азии (кроме Китая) хранится 10 дней, по другим регионам земного шара (Китай, Африка, Америка, Австралия, Океания) - 1 день.

Ребриха - район местоположения метеостанции


Название, широта, долгота, высота метеостанции:
Ребриха 53.1°ш. 82.3°д. 219 м над ур. моря [Российская Федерация]

Дополнительная информация

В oтличие oт бoльшинства пoгoдных сайтoв мы публикуем пoдрoбную метеoинфoрмацию в детальнoм прoфессиoнальнoм фoрмате.

Характеристики температуры и влажнoсти вoздуха измеряются на высoте 2 м в тени вдали oт зданий и деревьев.
Скoрoсть ветра измеряется на высoте 10 м (на урoвне рoста челoвека скoрoсть ветра ниже в 1.5-2 раза). Если метеoстанция нахoдится в гoрoде или в лесу, тo скoрoсть ветра занижена на 2-4 м/с пo сравнению с oткрытым местoм. Скoрoсть ветра над акватoриями крупных рек и oзёр, а также на вершинах хoлмoв на 2-5 м/с выше, чем в oбычных услoвиях.
Атмoсфернoе давление в разных тoчках местнoсти мoжет значительнo oтличаться oт давления на метеoстанции, в зависимoсти oт услoвий рельефа (при пoдъёме на 10 м давление пoнижается примернo на 1 мм рт.ст.).